contact:dominique.lefevre@mio.osupytheas.fr, maurice.libes@osupytheas.fr, didier.mallarino@osupytheas.fr
Project:EMSO http://www.emso-fr.org/EMSO-France
Depth: 2436.0 m
Title:EMSO Ligure Ouest : Data MII capteur AQUADOPP
Date,Latitude,Longitude,X_East,Y_North,Z_Up,Amplitude_X,Amplitude_Y,Amplitude_Z,Batterie,SoundSpeed,Heading,Pitch,Roll,Pressure,TIS,Speed,Direction
, degrees North, degrees East, m.s-1, m.s-1,m.s-1, 1, 1, 1, Volt, m.s-1, degree, degree, degree, dbar, degree_C, m.s-1, degree
2023-11-02T00:04:02,42.805,6.029,-0.004,0.02,-0.054,102.0,100.0,100.0,13.4,1505.2,349.0,-0.8,1.8,2471.59,13.29,0.02,348.7
2023-11-02T00:07:03,42.805,6.029,0.002,-0.004,-0.042,101.0,102.0,101.0,13.4,1505.2,357.4,-0.7,1.8,2471.6,13.29,0.004,153.4
2023-11-02T00:10:03,42.805,6.029,-0.007,0.027,-0.032,102.0,102.0,101.0,13.4,1505.2,341.2,-0.8,1.8,2471.589,13.29,0.027,345.5
2023-11-02T00:13:03,42.805,6.029,-0.016,0.02,-0.029,102.0,102.0,100.0,13.4,1505.2,338.3,-0.8,1.8,2471.554,13.29,0.025,321.3
2023-11-02T00:16:03,42.805,6.029,-0.021,0.034,-0.025,101.0,102.0,102.0,13.4,1505.2,340.6,-0.7,1.8,2471.567,13.29,0.039,328.3
2023-11-02T00:19:03,42.805,6.029,0.01,0.023,-0.022,101.0,102.0,101.0,13.4,1505.2,339.6,-0.8,1.8,2471.528,13.29,0.025,23.5
2023-11-02T00:22:03,42.805,6.029,0.005,0.01,-0.034,103.0,104.0,101.0,13.4,1505.2,330.7,-0.8,1.8,2471.532,13.29,0.011,26.6
2023-11-02T00:25:03,42.805,6.029,-0.001,0.024,-0.045,104.0,104.0,99.0,13.4,1505.2,359.0,-0.8,1.8,2471.534,13.29,0.024,357.6
2023-11-02T00:28:03,42.805,6.029,-0.014,0.018,-0.032,102.0,103.0,101.0,13.4,1505.2,350.0,-0.7,1.8,2471.542,13.29,0.022,322.1
2023-11-02T00:31:03,42.805,6.029,0.0,0.027,0.011,102.0,102.0,101.0,13.4,1505.2,343.0,-0.7,1.8,2471.492,13.29,0.026,0.0
2023-11-02T00:34:03,42.805,6.029,0.002,0.036,-0.012,103.0,102.0,101.0,13.4,1505.2,352.7,-0.7,1.8,2471.538,13.29,0.036,3.2
2023-11-02T00:37:03,42.805,6.029,-0.017,0.024,-0.023,101.0,101.0,102.0,13.4,1505.2,334.8,-0.8,1.8,2471.518,13.29,0.029,324.7
2023-11-02T00:40:03,42.805,6.029,-0.005,0.025,-0.025,103.0,101.0,101.0,13.4,1505.2,349.0,-0.8,1.8,2471.541,13.29,0.025,348.7
2023-11-02T00:43:03,42.805,6.029,0.023,0.013,-0.025,101.0,103.0,100.0,13.4,1505.2,349.6,-0.8,1.8,2471.489,13.29,0.026,60.5
2023-11-02T00:46:03,42.805,6.029,-0.001,0.03,0.003,102.0,103.0,101.0,13.4,1505.2,340.0,-0.7,1.8,2471.511,13.29,0.03,358.1
2023-11-02T00:49:03,42.805,6.029,0.0,0.037,0.025,101.0,102.0,102.0,13.4,1505.2,334.6,-0.8,1.8,2471.503,13.29,0.037,0.0
2023-11-02T00:52:03,42.805,6.029,-0.005,0.023,-0.023,105.0,101.0,101.0,13.3,1505.2,331.8,-0.8,1.8,2471.514,13.29,0.023,347.7
2023-11-02T00:55:03,42.805,6.029,-0.016,0.02,-0.041,104.0,103.0,101.0,13.3,1505.2,350.5,-0.8,1.8,2471.516,13.29,0.025,321.3
2023-11-02T00:58:03,42.805,6.029,-0.002,0.024,-0.045,102.0,104.0,101.0,13.4,1505.2,359.0,-0.8,1.8,2471.441,13.29,0.024,355.2
2023-11-02T01:04:03,42.805,6.029,-0.019,0.033,-0.053,103.0,103.0,102.0,13.4,1505.2,353.6,-0.8,1.8,2471.576,13.29,0.038,330.1
2023-11-02T01:07:03,42.805,6.029,-0.006,0.031,-0.011,101.0,102.0,101.0,13.3,1505.2,333.8,-0.8,1.8,2471.536,13.29,0.031,349.0
2023-11-02T01:10:03,42.805,6.029,-0.015,0.026,-0.046,102.0,103.0,101.0,13.3,1505.2,349.6,-0.8,1.8,2471.518,13.29,0.03,330.0
2023-11-02T01:13:03,42.805,6.029,-0.008,0.03,-0.007,103.0,101.0,101.0,13.3,1505.2,358.0,-0.7,1.8,2471.534,13.29,0.031,345.1
2023-11-02T01:16:03,42.805,6.029,-0.001,0.028,0.01,102.0,108.0,101.0,13.4,1505.2,351.9,-0.7,1.8,2471.531,13.29,0.028,358.0
2023-11-02T01:19:03,42.805,6.029,-0.007,0.029,-0.006,102.0,102.0,101.0,13.4,1505.2,337.1,-0.7,1.8,2471.499,13.29,0.029,346.4
2023-11-02T01:22:02,42.805,6.029,0.036,-0.002,0.007,101.0,104.0,102.0,13.4,1505.2,332.3,-0.8,1.8,2471.494,13.29,0.036,93.2
2023-11-02T01:25:03,42.805,6.029,0.0,0.031,-0.012,103.0,102.0,101.0,13.4,1505.2,359.0,-0.8,1.8,2471.494,13.29,0.03,0.0
2023-11-02T01:28:03,42.805,6.029,-0.043,0.023,-0.066,102.0,101.0,102.0,13.3,1505.2,341.5,-0.7,1.8,2471.504,13.29,0.048,298.1
2023-11-02T01:31:02,42.805,6.029,-0.002,0.018,-0.009,101.0,103.0,101.0,13.4,1505.2,348.8,-0.7,1.8,2471.456,13.29,0.018,353.7
2023-11-02T01:34:02,42.805,6.029,0.005,0.008,-0.019,104.0,101.0,102.0,13.3,1505.2,0.0,-0.7,1.8,2471.457,13.29,0.009,32.0
2023-11-02T01:37:02,42.805,6.029,-0.009,-0.007,-0.04,101.0,102.0,100.0,13.4,1505.2,354.4,-0.8,1.8,2471.512,13.29,0.011,232.1
2023-11-02T01:40:02,42.805,6.029,0.005,0.044,-0.018,102.0,103.0,101.0,13.3,1505.2,351.0,-0.8,1.8,2471.535,13.29,0.044,6.5
2023-11-02T01:43:03,42.805,6.029,-0.014,0.022,0.003,102.0,102.0,101.0,13.4,1505.2,334.2,-0.8,1.8,2471.448,13.29,0.026,327.5
2023-11-02T01:46:03,42.805,6.029,-0.025,0.021,-0.046,103.0,102.0,102.0,13.3,1505.2,346.1,-0.7,1.8,2471.46,13.29,0.032,310.0
2023-11-02T01:49:03,42.805,6.029,-0.004,0.016,-0.024,103.0,103.0,101.0,13.4,1505.2,353.9,-0.8,1.8,2471.472,13.29,0.016,346.0
2023-11-02T01:52:02,42.805,6.029,0.008,0.003,-0.038,102.0,104.0,100.0,13.4,1505.2,353.4,-0.8,1.8,2471.482,13.29,0.008,69.4
2023-11-02T01:55:03,42.805,6.029,-0.031,0.029,-0.021,104.0,103.0,101.0,13.3,1505.2,350.0,-0.8,1.8,2471.466,13.29,0.042,313.1
2023-11-02T01:58:03,42.805,6.029,-0.012,0.02,-0.028,102.0,103.0,102.0,13.4,1505.2,333.0,-0.7,1.8,2471.462,13.29,0.023,329.0
2023-11-02T02:04:02,42.805,6.029,-0.015,0.025,-0.046,102.0,102.0,102.0,13.4,1505.2,358.1,-0.8,1.8,2471.499,13.29,0.029,329.0
2023-11-02T02:07:03,42.805,6.029,0.003,0.038,-0.03,102.0,103.0,101.0,13.3,1505.2,344.2,-0.8,1.8,2471.49,13.29,0.038,4.5
2023-11-02T02:10:03,42.805,6.029,0.0,0.032,0.003,102.0,101.0,102.0,13.3,1505.2,333.8,-0.7,1.8,2471.493,13.29,0.032,0.0
2023-11-02T02:13:03,42.805,6.029,-0.001,0.018,-0.043,102.0,103.0,101.0,13.4,1505.2,0.9,-0.8,1.8,2471.481,13.29,0.018,356.8
2023-11-02T02:16:03,42.805,6.029,0.002,0.031,-0.008,103.0,102.0,101.0,13.3,1505.2,343.2,-0.8,1.8,2471.459,13.29,0.031,3.7
2023-11-02T02:19:03,42.805,6.029,-0.009,0.034,0.001,102.0,103.0,101.0,13.4,1505.2,339.4,-0.8,1.8,2471.473,13.29,0.035,345.2
2023-11-02T02:22:03,42.805,6.029,0.021,0.015,-0.005,103.0,104.0,101.0,13.4,1505.2,359.1,-0.8,1.8,2471.518,13.29,0.025,54.5
2023-11-02T02:25:03,42.805,6.029,-0.015,0.031,-0.011,105.0,103.0,101.0,13.4,1505.2,338.8,-0.8,1.8,2471.44,13.29,0.034,334.2
2023-11-02T02:28:03,42.805,6.029,-0.005,0.019,-0.026,103.0,102.0,103.0,13.3,1505.2,347.9,-0.8,1.8,2471.475,13.29,0.019,345.3
2023-11-02T02:31:03,42.805,6.029,-0.01,0.019,-0.022,104.0,103.0,102.0,13.4,1505.2,349.1,-0.7,1.8,2471.449,13.29,0.021,332.2
2023-11-02T02:34:03,42.805,6.029,-0.003,0.017,-0.014,103.0,101.0,102.0,13.3,1505.2,338.2,-0.7,1.8,2471.451,13.29,0.017,350.0
2023-11-02T02:37:03,42.805,6.029,0.003,0.018,-0.024,101.0,102.0,102.0,13.3,1505.2,342.0,-0.8,1.8,2471.495,13.29,0.018,9.5
2023-11-02T02:40:03,42.805,6.029,-0.012,0.026,-0.035,104.0,101.0,101.0,13.4,1505.2,334.9,-0.8,1.8,2471.471,13.29,0.028,335.2
2023-11-02T02:43:03,42.805,6.029,-0.001,0.008,-0.036,102.0,103.0,100.0,13.4,1505.2,343.0,-0.8,1.8,2471.431,13.29,0.008,352.9
2023-11-02T02:46:03,42.805,6.029,-0.006,0.015,-0.039,102.0,103.0,101.0,13.3,1505.2,350.9,-0.7,1.8,2471.494,13.29,0.016,338.2
2023-11-02T02:49:03,42.805,6.029,-0.015,0.024,-0.001,103.0,102.0,102.0,13.4,1505.2,350.2,-0.8,1.8,2471.422,13.29,0.028,328.0
2023-11-02T02:52:03,42.805,6.029,-0.009,0.022,-0.014,102.0,103.0,101.0,13.4,1505.2,334.2,-0.8,1.8,2471.423,13.29,0.023,337.8
2023-11-02T02:55:03,42.805,6.029,-0.011,0.012,-0.028,104.0,102.0,101.0,13.4,1505.2,338.4,-0.8,1.8,2471.445,13.29,0.016,317.5
2023-11-02T02:58:03,42.805,6.029,-0.003,0.017,-0.034,103.0,101.0,102.0,13.3,1505.2,343.1,-0.8,1.8,2471.442,13.29,0.017,350.0
2023-11-02T03:04:02,42.805,6.029,0.002,-0.005,-0.031,102.0,102.0,101.0,13.3,1505.2,358.2,-0.7,1.8,2471.501,13.29,0.005,158.2
2023-11-02T03:07:03,42.805,6.029,-0.014,0.019,-0.013,102.0,102.0,102.0,13.4,1505.2,349.5,-0.8,1.8,2471.453,13.29,0.023,323.6
2023-11-02T03:10:03,42.805,6.029,0.007,0.006,-0.018,104.0,102.0,102.0,13.3,1505.2,345.7,-0.8,1.8,2471.46,13.29,0.009,49.4
2023-11-02T03:13:03,42.805,6.029,-0.003,0.0,-0.048,102.0,104.0,102.0,13.3,1505.2,338.2,-0.8,1.9,2471.476,13.29,0.003,270.0
2023-11-02T03:16:03,42.805,6.029,0.0,0.02,-0.019,103.0,102.0,101.0,13.4,1505.2,346.1,-0.7,1.8,2471.488,13.29,0.02,0.0
2023-11-02T03:19:03,42.805,6.029,0.032,-0.018,-0.043,102.0,103.0,101.0,13.4,1505.2,339.8,-0.7,1.8,2471.484,13.29,0.036,119.4
2023-11-02T03:22:03,42.805,6.029,-0.018,0.015,-0.026,104.0,103.0,101.0,13.3,1505.2,351.1,-0.8,1.8,2471.446,13.29,0.023,309.8
2023-11-02T03:25:03,42.805,6.029,0.001,0.024,0.001,102.0,104.0,101.0,13.4,1505.2,341.2,-0.7,1.8,2471.494,13.29,0.024,2.4
2023-11-02T03:28:03,42.805,6.029,-0.013,0.007,-0.044,103.0,103.0,101.0,13.4,1505.2,353.2,-0.7,1.8,2471.481,13.29,0.014,298.3
2023-11-02T03:31:03,42.805,6.029,0.007,0.029,-0.028,104.0,102.0,101.0,13.4,1505.2,352.9,-0.7,1.8,2471.431,13.29,0.029,13.6
2023-11-02T03:34:03,42.805,6.029,0.003,0.014,-0.04,102.0,103.0,101.0,13.4,1505.2,348.8,-0.8,1.8,2471.474,13.29,0.014,12.1
2023-11-02T03:37:03,42.805,6.029,-0.012,0.039,-0.022,103.0,102.0,102.0,13.4,1505.2,349.8,-0.8,1.8,2471.458,13.29,0.04,342.9
2023-11-02T03:40:03,42.805,6.029,-0.001,0.022,0.015,105.0,101.0,103.0,13.4,1505.2,333.0,-0.7,1.8,2471.423,13.29,0.022,357.4
2023-11-02T03:43:03,42.805,6.029,0.009,0.026,-0.004,102.0,102.0,101.0,13.3,1505.2,0.9,-0.8,1.8,2471.413,13.29,0.027,19.1
2023-11-02T03:46:03,42.805,6.029,-0.007,0.002,0.006,102.0,101.0,102.0,13.4,1505.2,340.7,-0.8,1.8,2471.475,13.29,0.007,285.9
2023-11-02T03:49:03,42.805,6.029,0.004,0.023,-0.002,104.0,103.0,101.0,13.4,1505.2,347.6,-0.8,1.8,2471.421,13.29,0.023,9.9
2023-11-02T03:52:03,42.805,6.029,-0.003,0.001,-0.023,102.0,104.0,101.0,13.4,1505.2,334.5,-0.7,1.8,2471.476,13.29,0.003,288.4
2023-11-02T03:55:03,42.805,6.029,0.007,-0.005,-0.008,104.0,103.0,102.0,13.4,1505.2,359.0,-0.8,1.8,2471.475,13.29,0.008,125.5
2023-11-02T03:58:03,42.805,6.029,0.01,0.029,-0.01,103.0,105.0,102.0,13.4,1505.2,342.6,-0.8,1.8,2471.459,13.29,0.03,19.0
2023-11-02T04:04:03,42.805,6.029,-0.007,0.034,-0.032,102.0,103.0,101.0,13.3,1505.2,337.8,-0.8,1.8,2471.517,13.29,0.034,348.4
2023-11-02T04:07:03,42.805,6.029,0.009,0.005,-0.011,104.0,102.0,101.0,13.4,1505.2,0.8,-0.8,1.8,2471.48,13.29,0.01,60.9
2023-11-02T04:10:03,42.805,6.029,0.013,0.004,-0.019,103.0,102.0,101.0,13.4,1505.2,358.0,-0.8,1.8,2471.481,13.29,0.013,72.9
2023-11-02T04:13:03,42.805,6.029,-0.017,0.027,-0.032,100.0,103.0,102.0,13.4,1505.2,342.7,-0.8,1.8,2471.472,13.29,0.031,327.8
2023-11-02T04:16:03,42.805,6.029,-0.026,0.021,-0.03,105.0,100.0,102.0,13.4,1505.2,340.3,-0.7,1.8,2471.477,13.29,0.033,308.9
2023-11-02T04:19:03,42.805,6.029,0.003,0.007,-0.022,102.0,103.0,101.0,13.4,1505.2,334.9,-0.7,1.8,2471.454,13.29,0.007,23.2
2023-11-02T04:22:03,42.805,6.029,-0.01,0.03,-0.018,102.0,103.0,102.0,13.4,1505.2,348.1,-0.8,1.8,2471.456,13.29,0.031,341.6
2023-11-02T04:25:03,42.805,6.029,0.009,0.024,-0.002,105.0,101.0,102.0,13.4,1505.2,352.1,-0.8,1.8,2471.451,13.29,0.025,20.6
2023-11-02T04:28:03,42.805,6.029,-0.015,0.012,-0.07,103.0,103.0,102.0,13.4,1505.2,342.6,-0.8,1.8,2471.432,13.29,0.019,308.7
2023-11-02T04:31:03,42.805,6.029,-0.002,0.011,-0.04,103.0,103.0,101.0,13.3,1505.2,356.3,-0.7,1.8,2471.452,13.29,0.011,349.7
2023-11-02T04:34:03,42.805,6.029,0.031,0.022,0.019,103.0,102.0,101.0,13.4,1505.2,343.7,-0.8,1.8,2471.469,13.29,0.038,54.6
2023-11-02T04:37:03,42.805,6.029,-0.008,0.007,-0.054,102.0,103.0,102.0,13.4,1505.2,354.2,-0.7,1.8,2471.459,13.29,0.01,311.2
2023-11-02T04:40:03,42.805,6.029,0.013,0.005,-0.054,102.0,103.0,101.0,13.3,1505.2,340.6,-0.8,1.8,2471.421,13.29,0.013,69.0
2023-11-02T04:43:03,42.805,6.029,-0.014,0.015,-0.033,102.0,103.0,101.0,13.4,1505.2,344.1,-0.8,1.8,2471.404,13.29,0.02,317.0
2023-11-02T04:46:03,42.805,6.029,0.013,0.016,0.0,104.0,102.0,101.0,13.4,1505.2,339.8,-0.8,1.8,2471.444,13.29,0.02,39.1
2023-11-02T04:49:03,42.805,6.029,-0.028,0.039,-0.014,101.0,102.0,102.0,13.4,1505.2,332.3,-0.7,1.8,2471.475,13.29,0.048,324.3
2023-11-02T04:52:03,42.805,6.029,0.006,0.021,-0.011,104.0,103.0,102.0,13.4,1505.2,348.8,-0.7,1.8,2471.456,13.29,0.021,15.9
2023-11-02T04:55:03,42.805,6.029,0.0,0.03,0.002,104.0,103.0,101.0,13.3,1505.2,338.9,-0.8,1.8,2471.436,13.29,0.03,0.0
2023-11-02T04:58:03,42.805,6.029,0.009,0.03,-0.02,103.0,103.0,101.0,13.4,1505.2,333.8,-0.8,1.8,2471.45,13.29,0.031,16.7
2023-11-02T05:04:03,42.805,6.029,0.008,0.009,-0.023,102.0,102.0,101.0,13.4,1505.2,353.1,-0.8,1.8,2471.466,13.29,0.012,41.6
2023-11-02T05:07:03,42.805,6.029,0.019,0.03,0.0,103.0,102.0,101.0,13.3,1505.2,345.9,-0.8,1.8,2471.476,13.29,0.035,32.3
2023-11-02T05:10:03,42.805,6.029,-0.013,0.032,-0.018,103.0,103.0,101.0,13.4,1505.2,331.8,-0.8,1.8,2471.479,13.29,0.034,337.9
2023-11-02T05:13:03,42.805,6.029,-0.003,0.049,-0.021,102.0,103.0,101.0,13.4,1505.2,336.6,-0.7,1.8,2471.498,13.29,0.049,356.5
2023-11-02T05:16:03,42.805,6.029,0.012,0.021,0.001,102.0,101.0,101.0,13.3,1505.2,354.8,-0.8,1.8,2471.467,13.29,0.024,29.7
2023-11-02T05:19:03,42.805,6.029,0.008,0.016,0.008,102.0,103.0,101.0,13.4,1505.2,340.4,-0.8,1.8,2471.473,13.29,0.017,26.6
2023-11-02T05:22:03,42.805,6.029,-0.001,0.036,-0.039,102.0,102.0,101.0,13.3,1505.2,333.8,-0.8,1.8,2471.476,13.29,0.036,358.4
2023-11-02T05:25:03,42.805,6.029,-0.005,0.022,-0.009,105.0,102.0,102.0,13.3,1505.2,350.8,-0.8,1.8,2471.473,13.29,0.022,347.2
2023-11-02T05:28:03,42.805,6.029,-0.001,0.027,-0.019,101.0,103.0,101.0,13.4,1505.2,353.1,-0.8,1.8,2471.465,13.29,0.027,357.9
2023-11-02T05:31:03,42.805,6.029,0.003,0.05,-0.011,104.0,102.0,102.0,13.4,1505.2,346.4,-0.8,1.8,2471.482,13.29,0.05,3.4
2023-11-02T05:34:03,42.805,6.029,-0.001,0.042,-0.024,103.0,102.0,102.0,13.4,1505.2,350.2,-0.8,1.8,2471.442,13.29,0.042,358.6
2023-11-02T05:37:03,42.805,6.029,-0.001,0.027,-0.002,102.0,102.0,102.0,13.4,1505.2,331.8,-0.8,1.8,2471.5,13.29,0.027,357.9
2023-11-02T05:40:03,42.805,6.029,0.0,-0.005,-0.045,101.0,102.0,101.0,13.4,1505.2,345.3,-0.8,1.8,2471.474,13.29,0.005,180.0
2023-11-02T05:43:03,42.805,6.029,-0.002,-0.01,-0.051,101.0,103.0,101.0,13.3,1505.2,348.8,-0.7,1.8,2471.471,13.29,0.01,191.3
2023-11-02T05:46:03,42.805,6.029,0.003,0.027,0.0,102.0,103.0,102.0,13.4,1505.2,351.8,-0.8,1.8,2471.486,13.29,0.027,6.3
2023-11-02T05:49:03,42.805,6.029,0.009,0.011,-0.021,102.0,103.0,102.0,13.4,1505.2,353.5,-0.8,1.8,2471.461,13.29,0.014,39.3
2023-11-02T05:52:03,42.805,6.029,0.0,0.014,-0.017,102.0,102.0,102.0,13.4,1505.2,334.1,-0.7,1.8,2471.463,13.29,0.014,0.0
2023-11-02T05:55:03,42.805,6.029,0.016,0.063,0.019,102.0,104.0,101.0,13.4,1505.2,357.0,-0.8,1.9,2471.483,13.29,0.064,14.2
2023-11-02T05:58:03,42.805,6.029,0.014,-0.005,-0.027,102.0,103.0,101.0,13.3,1505.2,343.4,-0.8,1.8,2471.489,13.29,0.014,109.6
2023-11-02T06:04:03,42.805,6.029,-0.017,0.024,-0.006,101.0,103.0,102.0,13.3,1505.2,334.1,-0.8,1.8,2471.532,13.29,0.029,324.7
2023-11-02T06:07:03,42.805,6.029,-0.003,0.027,-0.028,102.0,103.0,101.0,13.4,1505.2,345.0,-0.7,1.8,2471.546,13.29,0.027,353.7
2023-11-02T06:10:03,42.805,6.029,0.014,-0.003,-0.016,102.0,104.0,102.0,13.4,1505.2,352.2,-0.8,1.8,2471.534,13.29,0.014,102.1
2023-11-02T06:13:03,42.805,6.029,0.012,0.021,0.003,104.0,103.0,102.0,13.4,1505.2,346.9,-0.8,1.8,2471.522,13.29,0.024,29.7
2023-11-02T06:16:03,42.805,6.029,0.003,0.009,-0.013,103.0,104.0,101.0,13.4,1505.2,359.1,-0.7,1.8,2471.523,13.29,0.009,18.4
2023-11-02T06:19:03,42.805,6.029,0.005,0.022,-0.017,103.0,102.0,102.0,13.4,1505.2,343.2,-0.8,1.8,2471.522,13.29,0.022,12.8
2023-11-02T06:22:03,42.805,6.029,0.004,0.016,-0.001,102.0,102.0,102.0,13.4,1505.2,335.4,-0.8,1.8,2471.492,13.29,0.016,14.0
2023-11-02T06:25:03,42.805,6.029,-0.012,0.026,-0.042,102.0,102.0,101.0,13.4,1505.2,335.9,-0.8,1.8,2471.492,13.29,0.028,335.2
2023-11-02T06:28:03,42.805,6.029,0.0,0.036,-0.015,103.0,102.0,102.0,13.3,1505.2,359.0,-0.8,1.8,2471.503,13.29,0.036,0.0
2023-11-02T06:31:03,42.805,6.029,-0.003,-0.001,-0.033,102.0,102.0,102.0,13.4,1505.2,341.5,-0.7,1.8,2471.527,13.29,0.003,251.6
2023-11-02T06:34:03,42.805,6.029,0.011,-0.015,-0.044,101.0,102.0,101.0,13.4,1505.2,336.5,-0.8,1.8,2471.541,13.29,0.018,143.7
2023-11-02T06:37:03,42.805,6.029,0.02,0.005,-0.001,101.0,102.0,101.0,13.4,1505.2,333.4,-0.8,1.8,2471.535,13.29,0.02,76.0
2023-11-02T06:40:03,42.805,6.029,0.035,0.021,0.001,103.0,103.0,102.0,13.4,1505.2,359.1,-0.7,1.8,2471.533,13.29,0.04,59.0
2023-11-02T06:43:03,42.805,6.029,-0.008,0.045,-0.031,103.0,102.0,102.0,13.3,1505.2,339.1,-0.8,1.8,2471.496,13.29,0.045,349.9
2023-11-02T06:46:03,42.805,6.029,0.0,0.014,0.0,105.0,103.0,102.0,13.4,1505.2,356.9,-0.8,1.8,2471.526,13.29,0.014,0.0
2023-11-02T06:49:03,42.805,6.029,0.001,0.003,-0.027,103.0,101.0,102.0,13.4,1505.2,340.4,-0.8,1.8,2471.492,13.29,0.003,18.4
2023-11-02T06:52:03,42.805,6.029,-0.006,0.012,-0.045,104.0,102.0,101.0,13.4,1505.2,346.1,-0.7,1.8,2471.5,13.29,0.013,333.4
2023-11-02T06:55:03,42.805,6.029,0.003,0.01,-0.051,104.0,103.0,100.0,13.3,1505.2,344.5,-0.8,1.8,2471.558,13.29,0.01,16.7
2023-11-02T06:58:03,42.805,6.029,-0.002,0.013,-0.045,101.0,103.0,101.0,13.4,1505.2,351.1,-0.8,1.8,2471.542,13.29,0.013,351.3
2023-11-02T07:04:03,42.805,6.029,0.004,0.016,-0.02,101.0,106.0,102.0,13.4,1505.2,345.3,-0.7,1.8,2471.627,13.29,0.016,14.0
2023-11-02T07:07:03,42.805,6.029,0.004,0.029,0.002,102.0,103.0,101.0,13.4,1505.2,343.0,-0.7,1.8,2471.569,13.29,0.029,7.8
2023-11-02T07:10:03,42.805,6.029,-0.009,0.003,-0.026,102.0,103.0,102.0,13.4,1505.2,348.6,-0.8,1.8,2471.603,13.29,0.009,288.4
2023-11-02T07:13:03,42.805,6.029,0.004,0.018,-0.036,102.0,102.0,101.0,13.3,1505.2,339.1,-0.8,1.8,2471.56,13.29,0.018,12.5
2023-11-02T07:16:03,42.805,6.029,-0.002,0.0,-0.049,102.0,103.0,102.0,13.4,1505.2,337.0,-0.8,1.8,2471.573,13.29,0.002,270.0
2023-11-02T07:19:03,42.805,6.029,0.007,0.018,-0.018,103.0,103.0,102.0,13.3,1505.2,352.9,-0.8,1.8,2471.56,13.29,0.019,21.2
2023-11-02T07:22:03,42.805,6.029,0.0,0.019,-0.038,105.0,103.0,102.0,13.3,1505.2,351.3,-0.7,1.8,2471.602,13.29,0.019,0.0
2023-11-02T07:25:03,42.805,6.029,0.003,0.016,-0.054,104.0,102.0,103.0,13.4,1505.2,353.1,-0.8,1.8,2471.561,13.29,0.016,10.6
2023-11-02T07:28:03,42.805,6.029,0.007,0.023,-0.005,103.0,102.0,102.0,13.4,1505.2,332.2,-0.8,1.8,2471.545,13.29,0.024,16.9
2023-11-02T07:31:03,42.805,6.029,-0.001,0.029,-0.005,102.0,103.0,102.0,13.4,1505.2,348.3,-0.8,1.8,2471.588,13.29,0.029,358.0
2023-11-02T07:34:03,42.805,6.029,-0.003,-0.002,-0.004,103.0,103.0,103.0,13.3,1505.2,337.7,-0.7,1.8,2471.575,13.29,0.003,236.3
2023-11-02T07:37:03,42.805,6.029,-0.003,0.014,-0.046,105.0,102.0,102.0,13.4,1505.2,357.1,-0.8,1.8,2471.58,13.29,0.014,347.9
2023-11-02T07:40:03,42.805,6.029,0.022,-0.003,-0.024,103.0,102.0,102.0,13.4,1505.2,346.7,-0.8,1.8,2471.581,13.29,0.022,97.8
2023-11-02T07:43:03,42.805,6.029,-0.019,0.025,-0.007,102.0,103.0,102.0,13.4,1505.2,333.8,-0.8,1.8,2471.615,13.29,0.031,322.8
2023-11-02T07:46:03,42.805,6.029,0.001,0.018,-0.034,104.0,102.0,103.0,13.4,1505.2,337.1,-0.7,1.8,2471.594,13.29,0.018,3.2
2023-11-02T07:49:03,42.805,6.029,0.0,0.017,-0.009,105.0,103.0,102.0,13.3,1505.2,357.1,-0.7,1.8,2471.597,13.29,0.017,0.0
2023-11-02T07:52:03,42.805,6.029,0.001,0.012,-0.019,106.0,103.0,103.0,13.3,1505.2,332.3,-0.8,1.8,2471.6,13.29,0.012,4.8
2023-11-02T07:55:03,42.805,6.029,0.003,0.019,-0.026,102.0,103.0,102.0,13.3,1505.2,358.0,-0.8,1.8,2471.605,13.29,0.019,9.0
2023-11-02T07:58:03,42.805,6.029,0.003,0.015,-0.032,103.0,103.0,102.0,13.3,1505.2,332.3,-0.8,1.8,2471.612,13.29,0.015,11.3
2023-11-02T08:04:03,42.805,6.029,-0.023,0.024,-0.006,102.0,103.0,102.0,13.4,1505.2,333.4,-0.7,1.8,2471.601,13.29,0.033,316.2
2023-11-02T08:07:03,42.805,6.029,0.013,-0.008,-0.003,103.0,103.0,102.0,13.3,1505.2,334.8,-0.8,1.9,2471.678,13.29,0.015,121.6
2023-11-02T08:10:03,42.805,6.029,0.003,0.013,-0.002,102.0,103.0,102.0,13.4,1505.2,359.0,-0.8,1.8,2471.643,13.29,0.013,13.0
2023-11-02T08:13:03,42.805,6.029,0.016,0.015,-0.016,103.0,104.0,101.0,13.4,1505.2,349.7,-0.8,1.8,2471.608,13.29,0.021,46.9
2023-11-02T08:16:03,42.805,6.029,-0.007,0.01,-0.031,103.0,102.0,102.0,13.4,1505.2,333.8,-0.8,1.8,2471.588,13.29,0.012,325.0
2023-11-02T08:19:03,42.805,6.029,0.014,-0.007,-0.027,102.0,103.0,102.0,13.4,1505.2,359.0,-0.8,1.8,2471.603,13.29,0.015,116.6
2023-11-02T08:22:03,42.805,6.029,0.019,0.003,-0.005,105.0,104.0,101.0,13.3,1505.2,341.0,-0.7,1.8,2471.642,13.29,0.019,81.0
2023-11-02T08:25:03,42.805,6.029,-0.004,-0.004,-0.047,103.0,102.0,103.0,13.4,1505.2,339.8,-0.7,1.8,2471.61,13.29,0.005,225.0
2023-11-02T08:28:03,42.805,6.029,0.018,0.01,-0.059,103.0,103.0,101.0,13.3,1505.2,345.0,-0.8,1.8,2471.59,13.29,0.02,60.9
2023-11-02T08:31:03,42.805,6.029,0.027,0.0,-0.003,106.0,103.0,102.0,13.4,1505.2,351.3,-0.7,1.8,2471.606,13.29,0.026,90.0
2023-11-02T08:34:03,42.805,6.029,0.013,0.021,-0.01,103.0,103.0,104.0,13.4,1505.2,340.9,-0.7,1.8,2471.626,13.3,0.024,31.8
2023-11-02T08:37:03,42.805,6.029,0.014,0.019,0.008,103.0,102.0,101.0,13.4,1505.2,359.0,-0.8,1.8,2471.6,13.3,0.023,36.4
2023-11-02T08:40:03,42.805,6.029,0.012,-0.006,-0.026,101.0,103.0,102.0,13.3,1505.2,349.6,-0.8,1.8,2471.637,13.3,0.013,116.6
2023-11-02T08:43:03,42.805,6.029,0.009,0.022,-0.022,102.0,103.0,102.0,13.3,1505.2,344.8,-0.8,1.8,2471.623,13.3,0.023,22.2
2023-11-02T08:46:03,42.805,6.029,-0.004,0.022,0.005,102.0,103.0,102.0,13.4,1505.2,355.4,-0.7,1.8,2471.608,13.3,0.022,349.7
2023-11-02T08:49:03,42.805,6.029,0.009,0.0,-0.031,105.0,104.0,102.0,13.4,1505.2,349.0,-0.8,1.8,2471.66,13.3,0.009,90.0
2023-11-02T08:52:03,42.805,6.029,-0.003,0.003,-0.061,105.0,104.0,102.0,13.3,1505.2,337.8,-0.8,1.8,2471.627,13.3,0.004,315.0
2023-11-02T08:55:03,42.805,6.029,-0.01,0.02,-0.022,103.0,103.0,101.0,13.4,1505.2,335.4,-0.8,1.8,2471.612,13.3,0.022,333.4
2023-11-02T08:58:03,42.805,6.029,0.017,0.013,-0.02,106.0,104.0,101.0,13.3,1505.2,358.0,-0.8,1.8,2471.618,13.3,0.021,52.6
2023-11-02T09:04:03,42.805,6.029,-0.011,0.019,-0.047,106.0,103.0,102.0,13.4,1505.2,0.0,-0.8,1.8,2471.688,13.29,0.021,329.9
2023-11-02T09:07:03,42.805,6.029,-0.001,0.017,-0.01,103.0,103.0,102.0,13.4,1505.2,354.0,-0.8,1.8,2471.705,13.29,0.017,356.6
2023-11-02T09:10:03,42.805,6.029,-0.035,0.011,-0.05,105.0,103.0,101.0,13.4,1505.2,346.2,-0.7,1.8,2471.67,13.29,0.036,287.4
2023-11-02T09:13:03,42.805,6.029,-0.018,0.025,-0.017,103.0,103.0,102.0,13.3,1505.2,338.4,-0.8,1.8,2471.675,13.29,0.03,324.2
2023-11-02T09:16:03,42.805,6.029,0.008,0.008,-0.012,102.0,103.0,102.0,13.4,1505.2,348.6,-0.8,1.8,2471.678,13.3,0.011,45.0
2023-11-02T09:19:03,42.805,6.029,0.017,0.021,0.008,104.0,103.0,102.0,13.4,1505.2,356.1,-0.8,1.8,2471.641,13.3,0.027,39.0
2023-11-02T09:22:03,42.805,6.029,0.011,0.0,-0.016,102.0,106.0,101.0,13.4,1505.2,350.8,-0.8,1.8,2471.663,13.3,0.011,90.0
2023-11-02T09:25:03,42.805,6.029,0.0,0.016,-0.003,103.0,104.0,101.0,13.3,1505.2,350.2,-0.8,1.8,2471.614,13.3,0.016,0.0
2023-11-02T09:28:03,42.805,6.029,-0.001,0.02,-0.021,104.0,104.0,102.0,13.4,1505.2,341.8,-0.8,1.8,2471.65,13.3,0.02,357.1
2023-11-02T09:31:03,42.805,6.029,0.009,-0.001,-0.022,104.0,102.0,102.0,13.4,1505.2,344.0,-0.8,1.8,2471.625,13.3,0.009,96.3
2023-11-02T09:34:03,42.805,6.029,-0.003,0.017,-0.057,104.0,102.0,100.0,13.4,1505.2,351.1,-0.8,1.8,2471.62,13.3,0.017,350.0
2023-11-02T09:37:03,42.805,6.029,-0.005,0.03,-0.03,102.0,104.0,102.0,13.4,1505.2,339.6,-0.8,1.8,2471.648,13.29,0.03,350.5
2023-11-02T09:40:03,42.805,6.029,-0.004,0.003,-0.02,103.0,105.0,103.0,13.4,1505.2,331.9,-0.7,1.9,2471.678,13.3,0.005,306.9
2023-11-02T09:43:03,42.805,6.029,0.002,0.014,-0.029,102.0,104.0,102.0,13.4,1505.2,341.3,-0.8,1.8,2471.678,13.3,0.014,8.1
2023-11-02T09:46:03,42.805,6.029,-0.013,0.022,-0.003,103.0,103.0,102.0,13.3,1505.2,345.0,-0.8,1.8,2471.644,13.3,0.025,329.4
2023-11-02T09:49:03,42.805,6.029,0.009,-0.014,-0.025,103.0,108.0,101.0,13.4,1505.2,353.1,-0.8,1.8,2471.62,13.3,0.016,147.3
2023-11-02T09:52:03,42.805,6.029,-0.008,0.017,-0.011,103.0,105.0,101.0,13.4,1505.2,332.2,-0.7,1.8,2471.608,13.3,0.018,334.8
2023-11-02T09:55:03,42.805,6.029,0.006,0.026,-0.001,103.0,102.0,102.0,13.3,1505.2,353.1,-0.8,1.8,2471.641,13.3,0.026,13.0
2023-11-02T09:58:03,42.805,6.029,-0.001,0.017,-0.057,103.0,105.0,101.0,13.4,1505.2,338.2,-0.8,1.8,2471.641,13.3,0.017,356.6
2023-11-02T10:04:03,42.805,6.029,-0.002,0.032,0.019,102.0,103.0,101.0,13.3,1505.2,334.1,-0.8,1.8,2471.651,13.29,0.032,356.4